SL-3 DEB

基本信息
目录编号:
27741
目录名称:
SL-3 DEB
国际标识:
1985-090C
轨道中心:
EARTH
物体状态:
已陨落(2024-03-12)
发射日期:
1985-10-03 UTC
轨道信息
数据来源: 国际轨道数据
星历时间: 2024-03-08T05:38:19+0800
半长轴: 6526.881km
偏心率: 0.0008333
轨道倾角: 96.881°
近地点辐角: 252.242°
升交点赤经: 120.767°
平近点角: 107.797°
近地点: 143.307km
远地点: 154.185km
周期: 87.462分钟
每日圈数: 16.464339
详细信息
发射场:
TTMTR
轨道高度:
LEO
数据来源:
AOE Integration Group
参考系:
TEME
时间系统:
UTC
历元类型:
SGP4
2D轨道图
3D轨道图
轨道高度分析图
轨道倾角分析图
轨道综合分析图
查看轨道综合分析图